Location: Kellogg
(38.0159°N, 90.0546°W)
Time: 06:55:45
(UTC+00:00)

Vanguard 1 Rocket - Pass Details

Date: 17 September 2024
Orbit: 650 x 4218 km, 34.3° (Epoch: 05 October)

Event Time Altitude Azimuth Distance (km) Brightness Sun altitude
Rises 10:08:54 0° 252° (WSW) 5,393 - -19.2°
Reaches altitude 10° 10:11:44 10° 251° (WSW) 4,747 - -18.7°
Exits shadow 10:14:46 23° 249° (WSW) 4,147 10.1 -18.1°
Maximum altitude 10:26:47 77° 168° (SSE) 3,408 10.2 -15.8°
Drops below altitude 10° 10:52:21 10° 89° (E) 7,424 13.5 -11.0°
Sets 10:58:14 0° 88° (E) 8,423 14.4 -9.8°
